"2013/01/01",  3.4,  4.5,  2.4
"2013/01/02",  2.8,  3.8,  1.7
"2013/01/03",  2.9,  4.0,  2.0
"2013/01/04",  1.8,  2.5,  1.1
"2013/01/05",  1.1,  1.7,  0.5
"2013/01/06",  1.1,  1.9,  0.5
"2013/01/07",  1.3,  2.3,  0.5
"2013/01/08",  2.3,  3.9,  1.3
"2013/01/09",  3.1,  4.5,  2.0
"2013/01/10",  3.3,  4.4,  2.4
"2013/01/11",  2.0,  2.8,  1.1
"2013/01/12",  1.8,  2.9,  1.0
"2013/01/13",  1.7,  2.8,  0.6
"2013/01/14",  2.3,  2.9,  1.6
"2013/01/15",  1.7,  2.6,  1.1
"2013/01/16",  1.5,  2.4,  0.9
"2013/01/17",  1.2,  2.3,  0.4
"2013/01/18",  1.1,  1.9,  0.4
"2013/01/19",  0.8,  1.8,  0.1
"2013/01/20",  1.3,  2.7,  0.4
"2013/01/21",  1.7,  3.1,  0.6
"2013/01/22",  2.6,  3.4,  2.2
"2013/01/23",  2.5,  3.6,  1.4
"2013/01/24",  3.4,  4.9,  2.3
"2013/01/25",  3.1,  4.4,  2.1
"2013/01/26",  2.1,  3.1,  1.1
"2013/01/27",  1.6,  2.7,  0.7
"2013/01/28",  1.5,  2.7,  0.8
"2013/01/29",  1.6,  3.2,  0.5
"2013/01/30",  1.9,  3.4,  0.7
"2013/01/31",  2.1,  3.5,  1.0
"2013/02/01",  2.1,  3.6,  0.7
"2013/02/02",  5.0,  6.6,  3.4
"2013/02/03",  4.7,  6.0,  3.2
"2013/02/04",  5.4,  6.7,  4.4
"2013/02/05",  5.1,  6.4,  3.6
"2013/02/06",  4.5,  5.3,  3.9
"2013/02/07",  4.5,  6.3,  3.1
"2013/02/08",  4.1,  5.0,  3.2
"2013/02/09",  2.8,  4.0,  1.6
"2013/02/10",  3.3,  5.3,  1.9
"2013/02/11",  3.2,  4.9,  1.8
"2013/02/12",  2.5,  3.2,  1.4
"2013/02/13",  4.0,  6.1,  2.7
"2013/02/14",  3.4,  4.4,  2.4
"2013/02/15",  3.8,  4.3,  3.2
"2013/02/16",  3.1,  4.7,  1.9
"2013/02/17",  2.2,  3.6,  1.1
"2013/02/18",  2.3,  2.9,  1.6
"2013/02/19",  3.1,  3.4,  2.7
"2013/02/20",  3.2,  5.2,  1.6
"2013/02/21",  3.0,  4.7,  1.6
"2013/02/22",  2.5,  3.6,  1.3
"2013/02/23",  2.9,  5.0,  1.4
"2013/02/24",  2.9,  4.5,  1.6
"2013/02/25",  2.4,  4.1,  1.0
"2013/02/26",  2.6,  4.6,  0.9
"2013/02/27",  3.3,  4.2,  2.7
"2013/02/28",  4.3,  7.0,  2.4
"2013/03/01",  5.2,  7.0,  4.1
"2013/03/02",  6.7,  8.0,  5.2
"2013/03/03",  4.8,  6.3,  3.2
"2013/03/04",  5.1,  6.3,  4.1
"2013/03/05",  5.7,  8.0,  3.7
"2013/03/06",  5.9,  8.5,  3.6
"2013/03/07",  6.5,  8.6,  4.4
"2013/03/08",  8.1, 10.4,  6.1
"2013/03/09",  9.0, 11.2,  6.9
"2013/03/10",  9.0, 10.6,  7.7
"2013/03/11",  7.8, 10.1,  5.7
"2013/03/12",  8.2, 10.6,  6.2
"2013/03/13",  8.8, 10.4,  7.3
"2013/03/14",  9.0, 10.3,  7.0
"2013/03/15",  7.4, 10.1,  5.2
"2013/03/16",  8.5, 11.3,  6.0
"2013/03/17",  8.6, 11.0,  6.2
"2013/03/18",  9.8, 11.1,  8.4
"2013/03/19", 12.6, 15.0, 10.9
"2013/03/20", 12.5, 14.0, 11.0
"2013/03/21", 11.8, 13.6,  9.9
"2013/03/22", 10.8, 12.7,  9.4
"2013/03/23", 11.0, 12.5,  9.5
"2013/03/24", 10.3, 11.1,  9.6
"2013/03/25",  9.4, 10.1,  8.7
"2013/03/26",  9.0, 11.3,  6.9
"2013/03/27",  8.5,  9.0,  7.8
"2013/03/28", 10.4, 12.9,  8.5
"2013/03/29", 11.7, 12.7, 11.0
"2013/03/30",  9.6, 11.1,  8.7
"2013/03/31",  8.1,  8.7,  7.6
"2013/04/01",  9.3, 12.1,  7.1
"2013/04/02", 10.0, 10.9,  9.3
"2013/04/03", 10.4, 10.8,  9.3
"2013/04/04", 10.8, 14.0,  7.9
"2013/04/05", 12.6, 14.8, 10.9
"2013/04/06", 12.5, 13.8, 11.1
"2013/04/07", 13.9, 15.7, 12.7
"2013/04/08", 12.5, 15.1, 10.1
"2013/04/09", 11.9, 13.8,  9.9
"2013/04/10", 12.4, 14.1, 10.7
"2013/04/11", 12.0, 14.2, 10.1
"2013/04/12", 11.5, 14.3,  8.8
"2013/04/13", 12.2, 15.2,  9.5
"2013/04/14", 12.6, 14.8, 10.3
"2013/04/15", 14.0, 16.4, 12.3
"2013/04/16", 13.6, 15.4, 11.5
"2013/04/17", 13.8, 15.2, 12.4
"2013/04/18", 14.6, 16.5, 12.6
"2013/04/19", 14.3, 15.4, 13.3
"2013/04/20", 12.0, 13.3, 10.8
"2013/04/21", 10.0, 10.9,  9.5
"2013/04/22", 10.9, 14.3,  7.8
"2013/04/23", 11.9, 14.3,  9.2
"2013/04/24", 12.2, 12.6, 11.6
"2013/04/25", 14.3, 16.8, 12.5
"2013/04/26", 15.2, 17.9, 13.1
"2013/04/27", 15.0, 17.9, 12.4
"2013/04/28", 15.2, 18.3, 12.3
"2013/04/29", 15.3, 17.8, 12.8
"2013/04/30", 15.4, 16.0, 14.8
"2013/05/01", 14.7, 16.2, 13.4
"2013/05/02", 14.3, 16.7, 12.8
"2013/05/03", 14.7, 17.2, 12.3
"2013/05/04", 15.5, 18.4, 12.9
"2013/05/05", 16.4, 19.3, 13.8
"2013/05/06", 16.9, 19.5, 14.6
"2013/05/07", 16.3, 17.8, 14.8
"2013/05/08", 15.6, 18.5, 13.0
"2013/05/09", 16.5, 19.3, 13.8
"2013/05/10", 17.4, 19.5, 15.2
"2013/05/11", 16.2, 17.5, 15.1
"2013/05/12", 16.7, 19.6, 14.6
"2013/05/13", 16.9, 18.6, 15.4
"2013/05/14", 18.7, 21.8, 16.1
"2013/05/15", 18.9, 20.8, 17.2
"2013/05/16", 19.4, 22.2, 17.2
"2013/05/17", 19.1, 21.6, 16.8
"2013/05/18", 18.9, 21.7, 16.5
"2013/05/19", 19.6, 21.6, 17.6
"2013/05/20", 18.8, 19.7, 18.1
"2013/05/21", 20.0, 22.5, 18.2
"2013/05/22", 20.7, 23.6, 18.4
"2013/05/23", 21.0, 23.5, 19.0
"2013/05/24", 21.0, 24.4, 18.0
"2013/05/25", 20.7, 23.2, 18.3
"2013/05/26", 20.6, 22.4, 19.0
"2013/05/27", 21.0, 23.3, 19.1
"2013/05/28", 21.1, 22.7, 19.5
"2013/05/29", 20.3, 21.0, 19.4
"2013/05/30", 19.3, 19.8, 18.8
"2013/05/31", 20.3, 22.9, 18.1
"2013/06/01", 19.8, 21.6, 17.9
"2013/06/02", 19.4, 21.6, 17.8
"2013/06/03", 19.8, 22.8, 17.4
"2013/06/04", 21.1, 24.2, 18.3
"2013/06/05", 22.1, 24.9, 19.6
"2013/06/06", 21.8, 23.1, 20.5
"2013/06/07", 21.4, 22.8, 20.3
"2013/06/08", 21.7, 23.9, 19.9
"2013/06/09", 22.1, 24.5, 19.9
"2013/06/10", 22.4, 23.6, 21.2
"2013/06/11", 21.7, 22.7, 20.9
"2013/06/12", 20.6, 21.3, 20.0
"2013/06/13", 20.0, 20.4, 19.6
"2013/06/14", 20.3, 21.7, 19.3
"2013/06/15", 22.0, 23.6, 20.5
"2013/06/16", 21.8, 22.6, 21.1
"2013/06/17", 22.0, 24.3, 20.3
"2013/06/18", 23.2, 25.1, 21.5
"2013/06/19", 22.4, 23.1, 21.9
"2013/06/20", 21.0, 21.9, 20.5
"2013/06/21", 20.5, 21.0, 20.0
"2013/06/22", 20.8, 22.7, 19.2
"2013/06/23", 21.6, 23.8, 19.7
"2013/06/24", 21.2, 22.4, 20.2
"2013/06/25", 22.4, 25.0, 20.4
"2013/06/26", 21.6, 22.8, 20.3
"2013/06/27", 21.6, 24.3, 19.6
"2013/06/28", 21.9, 23.4, 20.5
"2013/06/29", 22.3, 24.4, 20.7
"2013/06/30", 22.6, 24.4, 21.1
"2013/07/01", 22.7, 24.1, 21.5
"2013/07/02", 23.2, 25.5, 21.3
"2013/07/03", 22.9, 24.2, 21.7
"2013/07/04", 22.5, 23.1, 22.0
"2013/07/05", 22.7, 23.4, 22.0
"2013/07/06", 23.6, 25.4, 22.3
"2013/07/07", 25.3, 27.9, 23.0
"2013/07/08", 26.1, 28.5, 24.1
"2013/07/09", 26.6, 28.9, 24.6
"2013/07/10", 27.1, 29.2, 25.2
"2013/07/11", 27.5, 29.8, 25.5
"2013/07/12", 27.5, 29.1, 26.0
"2013/07/13", 26.8, 28.0, 25.7
"2013/07/14", 26.7, 28.3, 25.5
"2013/07/15", 26.5, 28.3, 25.3
"2013/07/16", 25.8, 28.2, 23.8
"2013/07/17", 24.8, 25.8, 24.0
"2013/07/18", 25.2, 28.0, 23.3
"2013/07/19", 25.6, 27.4, 23.8
"2013/07/20", 24.7, 26.5, 23.2
"2013/07/21", 24.3, 26.3, 22.8
"2013/07/22", 24.7, 26.8, 23.1
"2013/07/23", 25.6, 27.2, 24.2
"2013/07/24", 24.1, 25.4, 23.2
"2013/07/25", 23.7, 25.4, 22.5
"2013/07/26", 24.9, 26.8, 23.4
"2013/07/27", 25.2, 26.5, 24.3
"2013/07/28", 25.2, 27.1, 23.5
"2013/07/29", 24.1, 25.2, 23.6
"2013/07/30", 24.8, 26.7, 23.4
"2013/07/31", 25.0, 26.2, 24.0
"2013/08/01", 24.7, 25.9, 23.8
"2013/08/02", 24.3, 25.8, 23.1
"2013/08/03", 24.7, 26.7, 22.9
"2013/08/04", 25.0, 26.2, 23.9
"2013/08/05", 25.4, 27.1, 23.8
"2013/08/06", 25.1, 25.7, 24.6
"2013/08/07", 25.9, 27.7, 24.4
"2013/08/08", 26.0, 27.5, 24.6
"2013/08/09", 26.7, 28.5, 25.1
"2013/08/10", 27.3, 28.8, 25.9
"2013/08/11", 27.7, 29.0, 26.6
"2013/08/12", 27.6, 28.9, 26.5
"2013/08/13", 27.3, 28.1, 26.4
"2013/08/14", 27.0, 28.4, 25.8
"2013/08/15", 27.1, 28.6, 25.7
"2013/08/16", 27.3, 28.9, 26.0
"2013/08/17", 27.4, 29.0, 26.1
"2013/08/18", 27.6, 29.4, 26.1
"2013/08/19", 28.0, 29.8, 26.4
"2013/08/20", 28.0, 29.3, 26.7
"2013/08/21", 27.2, 27.9, 26.5
"2013/08/22", 26.4, 27.4, 25.6
"2013/08/23", 25.9, 26.6, 25.4
"2013/08/24", 26.0, 27.4, 24.9
"2013/08/25", 25.2, 26.2, 24.2
"2013/08/26", 24.3, 25.3, 23.1
"2013/08/27", 24.2, 25.5, 23.0
"2013/08/28", 24.5, 26.0, 23.2
"2013/08/29", 25.1, 26.5, 23.8
"2013/08/30", 25.8, 27.4, 24.3
"2013/08/31"," * "," * "," * "
"2013/09/01"," * "," * "," * "
"2013/09/02"," * "," * "," * "
"2013/09/03"," * "," * "," * "
"2013/09/04", 25.3, 26.0, 24.6
"2013/09/05", 24.9, 25.3, 24.6
"2013/09/06", 24.2, 24.7, 23.8
"2013/09/07", 24.1, 25.2, 23.2
"2013/09/08", 24.0, 24.6, 23.2
"2013/09/09", 23.4, 24.4, 22.7
"2013/09/10", 23.4, 24.4, 22.5
"2013/09/11", 23.4, 24.0, 22.8
"2013/09/12", 24.0, 25.3, 22.8
"2013/09/13", 24.3, 25.3, 23.4
"2013/09/14", 24.5, 25.7, 23.5
"2013/09/15", 24.5, 25.2, 23.9
"2013/09/16", 24.0, 24.7, 22.8
"2013/09/17", 22.3, 23.3, 21.2
"2013/09/18", 21.8, 23.1, 20.7
"2013/09/19", 21.5, 22.7, 20.3
"2013/09/20", 21.7, 22.9, 20.3
"2013/09/21", 22.0, 23.3, 20.8
"2013/09/22", 22.0, 22.9, 20.9
"2013/09/23", 21.5, 22.1, 21.0
"2013/09/24", 21.3, 22.1, 20.6
"2013/09/25", 21.8, 22.4, 21.3
"2013/09/26", 21.2, 22.1, 19.9
"2013/09/27", 19.5, 20.3, 18.6
"2013/09/28", 19.1, 20.1, 18.0
"2013/09/29", 19.7, 20.8, 18.9
"2013/09/30", 19.8, 20.5, 19.1
"2013/10/01", 19.8, 20.2, 19.3
"2013/10/02", 20.1, 20.5, 19.9
"2013/10/03", 20.6, 21.5, 19.9
"2013/10/04", 19.2, 20.5, 18.4
"2013/10/05", 18.4, 18.5, 18.2
"2013/10/06", 19.0, 19.7, 18.4
"2013/10/07", 19.9, 20.8, 19.3
"2013/10/08", 20.6, 21.7, 19.8
"2013/10/09", 20.8, 21.5, 20.2
"2013/10/10", 21.0, 21.7, 20.3
"2013/10/11", 21.1, 21.9, 20.5
"2013/10/12", 21.4, 22.3, 20.7
"2013/10/13", 19.7, 20.8, 18.8
"2013/10/14", 18.7, 19.4, 17.8
"2013/10/15", 18.6, 19.1, 17.4
"2013/10/16", 16.3, 17.4, 15.4
"2013/10/17", 15.7, 16.3, 15.0
"2013/10/18", 15.7, 16.4, 15.1
"2013/10/19", 15.6, 16.0, 15.2
"2013/10/20", 15.3, 15.6, 15.1
"2013/10/21", 15.7, 16.5, 15.0
"2013/10/22", 16.3, 16.6, 15.9
"2013/10/23", 16.0, 16.3, 15.6
"2013/10/24", 15.7, 15.9, 15.4
"2013/10/25", 16.4, 17.2, 15.8
"2013/10/26", 15.9, 17.1, 14.9
"2013/10/27", 14.7, 15.6, 13.8
"2013/10/28", 13.6, 14.6, 12.5
"2013/10/29", 13.8, 14.3, 13.3
"2013/10/30", 14.9, 15.8, 14.1
"2013/10/31", 14.7, 15.6, 13.7
"2013/11/01", 14.1, 14.9, 13.1
"2013/11/02", 14.0, 14.5, 13.3
"2013/11/03", 14.6, 15.4, 14.0
"2013/11/04", 14.8, 15.1, 14.3
"2013/11/05", 13.8, 14.6, 13.0
"2013/11/06", 12.9, 13.8, 11.8
"2013/11/07", 13.1, 13.6, 12.8
"2013/11/08", 13.0, 13.9, 12.1
"2013/11/09", 12.4, 13.0, 12.1
"2013/11/10", 12.7, 13.4, 12.0
"2013/11/11", 12.7, 13.2, 11.6
"2013/11/12", 10.7, 11.6, 10.0
"2013/11/13",  9.9, 10.8,  9.1
"2013/11/14",  9.4, 10.2,  8.3
"2013/11/15", 10.1, 10.5,  9.8
"2013/11/16", 10.2, 11.2,  9.3
"2013/11/17", 10.1, 11.1,  9.1
"2013/11/18", 10.4, 11.3,  9.7
"2013/11/19",  9.9, 10.6,  9.2
"2013/11/20",  9.0,  9.9,  8.1
"2013/11/21",  8.9,  9.8,  8.0
"2013/11/22",  8.5,  9.5,  7.5
"2013/11/23",  8.6,  9.5,  7.7
"2013/11/24",  8.5,  9.6,  7.5
"2013/11/25",  8.8, 10.0,  8.1
"2013/11/26", 10.7, 11.5, 10.0
"2013/11/27",  9.5, 10.1,  8.8
"2013/11/28",  9.7, 10.3,  9.3
"2013/11/29",  8.6,  9.3,  8.0
"2013/11/30",  7.6,  8.5,  6.8
"2013/12/01",  7.2,  8.2,  6.2
"2013/12/02",  7.3,  8.4,  6.4
"2013/12/03",  7.2,  8.2,  6.2
"2013/12/04",  7.9,  8.8,  7.1
"2013/12/05",  8.0,  8.9,  7.3
"2013/12/06",  7.5,  8.4,  6.8
"2013/12/07",  7.7,  8.5,  6.9
"2013/12/08",  7.3,  7.8,  6.7
"2013/12/09",  6.5,  7.1,  5.7
"2013/12/10",  7.0,  7.7,  6.5
"2013/12/11",  6.6,  7.3,  5.9
"2013/12/12",  6.1,  7.0,  5.4
"2013/12/13",  5.5,  6.2,  4.7
"2013/12/14",  5.2,  5.9,  4.4
"2013/12/15",  4.7,  5.6,  4.0
"2013/12/16",  4.5,  5.3,  3.7
"2013/12/17",  4.9,  5.8,  4.1
"2013/12/18",  4.9,  5.3,  4.5
"2013/12/19",  5.4,  5.9,  5.0
"2013/12/20",  5.7,  6.0,  5.4
"2013/12/21",  5.1,  6.1,  4.4
"2013/12/22",  4.6,  5.4,  3.9
"2013/12/23",  4.0,  4.7,  3.0
"2013/12/24",  4.4,  5.2,  3.7
"2013/12/25",  3.7,  4.5,  2.8
"2013/12/26",  3.2,  3.9,  2.6
"2013/12/27",  4.3,  4.8,  3.9
"2013/12/28",  3.7,  4.3,  3.1
"2013/12/29",  2.9,  3.8,  2.1
"2013/12/30",  2.5,  3.5,  1.7
"2013/12/31",  2.6,  3.8,  1.8
